,,Stat5,,Stat1,,Stat2,,Stat3,,Stat4,,Wind1,,Wind1,
time,status,PA1M_AVG,status,PR1M_SUM,status,RH1M_AVG,status,SR1M_AVG,status,TA1M_AVG,status,W1dAve1m,status,W1sAve1m,
2002-08-02, 07:12:00,INVALID,0,VALID,0,VALID,92.5232,VALID,193.765,VALID,18.3668,VALID,128,VALID,0.776643,
2002-08-02, 07:13:00,VALID,917.569,VALID,0,VALID,92.644,VALID,200.085,VALID,18.4536,VALID,117,VALID,0.815625,
2002-08-02, 07:14:00,VALID,917.556,VALID,0,VALID,91.731,VALID,207.064,VALID,18.5671,VALID,111,VALID,1.17308,
2002-08-02, 07:15:00,VALID,917.561,VALID,0,VALID,90.8536,VALID,213.194,VALID,18.679,VALID,112,VALID,0.804492,
2002-08-02, 07:16:00,VALID,917.575,VALID,0,VALID,91.3584,VALID,219.019,VALID,18.8664,VALID,127,VALID,0.566016,
2002-08-02, 07:17:00,VALID,917.577,VALID,0,VALID,91.347,VALID,225.234,VALID,19.0272,VALID,128,VALID,0.291118,
2002-08-02, 07:18:00,VALID,917.588,VALID,0,VALID,90.4976,VALID,231.092,VALID,19.1991,VALID,107,VALID,0.776182,
2002-08-02, 07:19:00,VALID,917.588,VALID,0,VALID,90.4492,VALID,237.29,VALID,19.3348,VALID,95,VALID,0.532422,
2002-08-02, 07:20:00,VALID,917.578,VALID,0,VALID,90.6578,VALID,243.896,VALID,19.4832,VALID,98,VALID,0.310785,
2002-08-02, 07:21:00,VALID,917.586,VALID,0,VALID,90.2865,VALID,249.414,VALID,19.6572,VALID,103,VALID,0.346495,
2002-08-02, 07:22:00,VALID,917.582,VALID,0,VALID,88.4808,VALID,254.933,VALID,19.8411,VALID,137,VALID,0.661529,
2002-08-02, 07:23:00,VALID,917.564,VALID,0,VALID,87.3274,VALID,259.212,VALID,19.9411,VALID,138,VALID,0.953585,
2002-08-02, 07:24:00,VALID,917.565,VALID,0,VALID,86.726,VALID,263.458,VALID,20.0315,VALID,138,VALID,0.829327,
2002-08-02, 07:25:00,VALID,917.552,VALID,0,VALID,86.9358,VALID,267.058,VALID,20.0922,VALID,152,VALID,0.730699,
2002-08-02, 07:26:00,VALID,917.561,VALID,0,VALID,86.7361,VALID,270.81,VALID,20.1991,VALID,149,VALID,1.00823,
2002-08-02, 07:27:00,VALID,917.581,VALID,0,VALID,85.9172,VALID,274.478,VALID,20.2697,VALID,143,VALID,1.11158,
2002-08-02, 07:28:00,VALID,917.577,VALID,0,VALID,84.9686,VALID,277.008,VALID,20.3022,VALID,142,VALID,1.17535,
2002-08-02, 07:29:00,VALID,917.588,VALID,0,VALID,84.4981,VALID,279.216,VALID,20.3079,VALID,142,VALID,1.32891,
2002-08-02, 07:30:00,VALID,917.597,VALID,0,VALID,84.7766,VALID,278.927,VALID,20.3174,VALID,144,VALID,1.16118,
2002-08-02, 07:31:00,VALID,917.585,VALID,0,VALID,84.844,VALID,277.925,VALID,20.3502,VALID,144,VALID,0.95148,
2002-08-02, 07:32:00,VALID,917.578,VALID,0,VALID,84.3074,VALID,277.365,VALID,20.382,VALID,141,VALID,0.997713,
2002-08-02, 07:33:00,VALID,917.573,VALID,0,VALID,84.6812,VALID,277.229,VALID,20.4526,VALID,143,VALID,0.797075,
2002-08-02, 07:34:00,VALID,917.563,VALID,0,VALID,84.8453,VALID,277.382,VALID,20.566,VALID,146,VALID,0.8123,
2002-08-02, 07:35:00,VALID,917.549,VALID,0,VALID,84.062,VALID,277.382,VALID,20.6363,VALID,138,VALID,1.00884,
2002-08-02, 07:36:00,VALID,917.56,VALID,0,VALID,84.5604,VALID,275.565,VALID,20.695,VALID,137,VALID,1.11106,
2002-08-02, 07:37:00,VALID,917.551,VALID,0,VALID,84.7664,VALID,272.712,VALID,20.7103,VALID,141,VALID,1.09683,
2002-08-02, 07:38:00,VALID,917.561,VALID,0,VALID,84.9356,VALID,267.788,VALID,20.7103,VALID,149,VALID,1.09014,
2002-08-02, 07:39:00,VALID,917.565,VALID,0,VALID,85.4989,VALID,262.575,VALID,20.7712,VALID,144,VALID,0.677015,
2002-08-02, 07:40:00,VALID,917.567,VALID,0,VALID,84.699,VALID,261.42,VALID,20.8299,VALID,134,VALID,1.37829,
2002-08-02, 07:41:00,VALID,917.594,VALID,0,VALID,84.8453,VALID,261.454,VALID,20.7966,VALID,133,VALID,1.00551,
2002-08-02, 07:42:00,VALID,917.611,VALID,0,VALID,84.8567,VALID,262.099,VALID,20.7739,VALID,123,VALID,1.14569,
2002-08-02, 07:43:00,VALID,917.607,VALID,0,VALID,84.3659,VALID,262.065,VALID,20.7416,VALID,129,VALID,1.14154,
2002-08-02, 07:44:00,VALID,917.615,VALID,0,VALID,83.7975,VALID,263.322,VALID,20.67,VALID,127,VALID,1.22591,
2002-08-02, 07:45:00,VALID,917.619,VALID,0,VALID,84.7741,VALID,266.395,VALID,20.5922,VALID,131,VALID,0.814103,
2002-08-02, 07:46:00,VALID,917.628,VALID,0,VALID,85.5739,VALID,266.327,VALID,20.6148,VALID,129,VALID,0.696205,
2002-08-02, 07:47:00,VALID,917.641,VALID,0,VALID,83.6067,VALID,267.278,VALID,20.6695,VALID,132,VALID,0.94778,
2002-08-02, 07:48:00,VALID,917.649,VALID,0,VALID,82.6416,VALID,268.552,VALID,20.715,VALID,131,VALID,1.17254,
2002-08-02, 07:49:00,VALID,917.653,VALID,0,VALID,82.7446,VALID,269.469,VALID,20.7562,VALID,139,VALID,1.10312,
2002-08-02, 07:50:00,VALID,917.65,VALID,0,VALID,82.784,VALID,271.235,VALID,20.8082,VALID,153,VALID,1.10485,
2002-08-02, 07:51:00,VALID,917.672,VALID,0,VALID,82.5348,VALID,271.829,VALID,20.8402,VALID,140,VALID,0.991386,
2002-08-02, 07:52:00,VALID,917.666,VALID,0,VALID,81.4615,VALID,274.088,VALID,20.8658,VALID,113,VALID,1.22676,
2002-08-02, 07:53:00,VALID,917.662,VALID,0,VALID,81.2721,VALID,278.554,VALID,20.8655,VALID,113,VALID,1.53801,
2002-08-02, 07:54:00,VALID,917.69,VALID,0,VALID,81.2632,VALID,282.306,VALID,20.8491,VALID,118,VALID,1.66617,
2002-08-02, 07:55:00,VALID,917.716,VALID,0,VALID,81.3102,VALID,286.144,VALID,20.8429,VALID,122,VALID,1.49258,
2002-08-02, 07:56:00,VALID,917.758,VALID,0,VALID,81.2276,VALID,288.029,VALID,20.8747,VALID,136,VALID,1.59146,
2002-08-02, 07:57:00,VALID,917.806,VALID,0,VALID,81.7947,VALID,287.757,VALID,20.9183,VALID,146,VALID,0.907728,
2002-08-02, 07:58:00,VALID,917.843,VALID,0,VALID,80.7571,VALID,283.053,VALID,21.0118,VALID,131,VALID,1.05384,
2002-08-02, 07:59:00,VALID,917.879,VALID,0,VALID,79.3036,VALID,277.093,VALID,21.0931,VALID,117,VALID,1.26149,
2002-08-02, 08:00:00,VALID,917.91,VALID,0,VALID,78.9984,VALID,281.355,VALID,21.1642,VALID,126,VALID,1.14884,
2002-08-02, 08:01:00,VALID,917.937,VALID,0,VALID,79.7856,VALID,287.197,VALID,21.2536,VALID,119,VALID,0.712316,
2002-08-02, 08:02:00,VALID,917.945,VALID,0,VALID,79.4829,VALID,293.853,VALID,21.3799,VALID,126,VALID,0.701436,
2002-08-02, 08:03:00,VALID,917.961,VALID,0,VALID,78.5025,VALID,297.691,VALID,21.4928,VALID,161,VALID,0.97516,
2002-08-02, 08:04:00,VALID,917.965,VALID,0,VALID,79.6381,VALID,299.915,VALID,21.5927,VALID,169,VALID,0.803168,
2002-08-02, 08:05:00,VALID,917.966,VALID,0,VALID,77.798,VALID,299.746,VALID,21.6993,VALID,155,VALID,1.31797,
2002-08-02, 08:06:00,VALID,917.977,VALID,0,VALID,77.002,VALID,304.28,VALID,21.7185,VALID,149,VALID,1.31517,
2002-08-02, 08:07:00,VALID,917.971,VALID,0,VALID,77.1215,VALID,298.098,VALID,21.6439,VALID,138,VALID,1.21875,
2002-08-02, 08:08:00,VALID,917.969,VALID,0,VALID,77.0885,VALID,303.855,VALID,21.566,VALID,133,VALID,1.18921,
2002-08-02, 08:09:00,VALID,917.97,VALID,0,VALID,76.4387,VALID,304.704,VALID,21.4782,VALID,134,VALID,1.09535,
2002-08-02, 08:10:00,VALID,917.974,VALID,0,VALID,77.3288,VALID,310.715,VALID,21.4594,VALID,112,VALID,1.0635,
2002-08-02, 08:11:00,VALID,917.976,VALID,0,VALID,77.648,VALID,323.553,VALID,21.4532,VALID,102,VALID,1.35938,
2002-08-02, 08:12:00,VALID,917.982,VALID,0,VALID,77.6048,VALID,333.3,VALID,21.4206,VALID,114,VALID,1.25253,
2002-08-02, 08:13:00,VALID,917.999,VALID,0,VALID,77.4433,VALID,342.384,VALID,21.4238,VALID,115,VALID,0.955798,
2002-08-02, 08:14:00,VALID,918.001,VALID,0,VALID,79.4905,VALID,352.794,VALID,21.5143,VALID,143,VALID,0.515024,
2002-08-02, 08:15:00,VALID,918.021,VALID,0,VALID,77.6632,VALID,360.656,VALID,21.6657,VALID,120,VALID,0.974507,
2002-08-02, 08:16:00,VALID,918.036,VALID,0,VALID,75.8131,VALID,368.009,VALID,21.7925,VALID,124,VALID,0.947368,
2002-08-02, 08:17:00,VALID,918.036,VALID,0,VALID,74.8021,VALID,375.871,VALID,21.8887,VALID,124,VALID,1.30377,
2002-08-02, 08:18:00,VALID,918.072,VALID,0,VALID,73.8077,VALID,376.822,VALID,21.9398,VALID,122,VALID,1.12563,
2002-08-02, 08:19:00,VALID,918.079,VALID,0,VALID,76.2136,VALID,384.786,VALID,22.0627,VALID,120,VALID,0.579504,
2002-08-02, 08:20:00,VALID,918.092,VALID,0,VALID,74.1524,VALID,392.529,VALID,22.2695,VALID,121,VALID,0.542752,
2002-08-02, 08:21:00,VALID,918.094,VALID,0,VALID,73.9222,VALID,397.046,VALID,22.4896,VALID,89,VALID,0.574119,
2002-08-02, 08:22:00,VALID,918.089,VALID,0,VALID,73.2877,VALID,398.404,VALID,22.6636,VALID,76,VALID,1.40089,
2002-08-02, 08:23:00,VALID,918.106,VALID,0,VALID,73.9845,VALID,404.144,VALID,22.738,VALID,74,VALID,0.754523,
2002-08-02, 08:24:00,VALID,918.103,VALID,0,VALID,73.5369,VALID,405.434,VALID,22.8549,VALID,37,VALID,0.80625,
2002-08-02, 08:25:00,VALID,918.124,VALID,0,VALID,70.7966,VALID,339.056,VALID,23.0195,VALID,105,VALID,0.580859,
2002-08-02, 08:26:00,VALID,918.109,VALID,0,VALID,68.6247,VALID,352.437,VALID,23.1254,VALID,110,VALID,0.749589,
2002-08-02, 08:27:00,VALID,918.114,VALID,0,VALID,69.8124,VALID,355.647,VALID,23.2124,VALID,61,VALID,0.754607,
2002-08-02, 08:28:00,VALID,918.117,VALID,0,VALID,69.4042,VALID,384.208,VALID,23.297,VALID,39,VALID,1.02214,
2002-08-02, 08:29:00,VALID,918.111,VALID,0,VALID,67.7295,VALID,399.559,VALID,23.3194,VALID,39,VALID,1.26816,
2002-08-02, 08:30:00,VALID,918.102,VALID,0,VALID,68.626,VALID,400.951,VALID,23.3773,VALID,29,VALID,0.904772,
2002-08-02, 08:31:00,VALID,918.103,VALID,0,VALID,67.554,VALID,412.634,VALID,23.4387,VALID,55,VALID,0.949414,
2002-08-02, 08:32:00,VALID,918.09,VALID,0,VALID,66.524,VALID,442.266,VALID,23.538,VALID,68,VALID,0.59737,
2002-08-02, 08:33:00,VALID,918.091,VALID,0,VALID,67.5934,VALID,402.106,VALID,23.6868,VALID,36,VALID,1.01372,
2002-08-02, 08:34:00,VALID,918.073,VALID,0,VALID,67.1204,VALID,417.083,VALID,23.8132,VALID,4,VALID,1.21009,
2002-08-02, 08:35:00,VALID,918.065,VALID,0,VALID,67.1166,VALID,394.685,VALID,24.0004,VALID,12,VALID,1.05699,
2002-08-02, 08:36:00,VALID,918.04,VALID,0,VALID,66.3231,VALID,378.639,VALID,24.2133,VALID,10,VALID,0.771234,
2002-08-02, 08:37:00,VALID,918.028,VALID,0,VALID,62.9851,VALID,360.69,VALID,24.3624,VALID,12,VALID,0.690717,
2002-08-02, 08:38:00,VALID,918.016,VALID,0,VALID,62.4765,VALID,321.362,VALID,24.2974,VALID,21,VALID,1.01098,
2002-08-02, 08:39:00,VALID,918.01,VALID,0,VALID,62.4371,VALID,331.975,VALID,24.223,VALID,30,VALID,0.823718,
2002-08-02, 08:40:00,VALID,918.014,VALID,0,VALID,61.992,VALID,338.054,VALID,24.1674,VALID,38,VALID,0.554036,
2002-08-02, 08:41:00,VALID,918.028,VALID,0,VALID,62.7651,VALID,322.058,VALID,24.2097,VALID,13,VALID,0.326758,
2002-08-02, 08:42:00,VALID,918.018,VALID,0,VALID,64.2453,VALID,247.02,VALID,24.3068,VALID,12,VALID,0.163035,
2002-08-02, 08:43:00,VALID,918.013,VALID,0,VALID,66.2531,VALID,231.737,VALID,24.2085,VALID,301,VALID,0.836143,
2002-08-02, 08:44:00,VALID,918.003,VALID,0,VALID,66.2277,VALID,204.789,VALID,23.7332,VALID,304,VALID,0.814787,
2002-08-02, 08:45:00,VALID,917.985,VALID,0,VALID,67.2882,VALID,222.024,VALID,23.3388,VALID,300,VALID,0.680689,
2002-08-02, 08:46:00,VALID,917.967,VALID,0,VALID,69.4576,VALID,235.864,VALID,23.0475,VALID,313,VALID,0.660657,
2002-08-02, 08:47:00,VALID,917.959,VALID,0,VALID,73.5687,VALID,218.611,VALID,22.9053,VALID,352,VALID,0.608758,
2002-08-02, 08:48:00,VALID,917.954,VALID,0,VALID,74.6178,VALID,246.681,VALID,22.8765,VALID,15,VALID,0.804899,
2002-08-02, 08:49:00,VALID,917.958,VALID,0,VALID,73.5483,VALID,254.424,VALID,22.9056,VALID,15,VALID,1.26275,
2002-08-02, 08:50:00,VALID,917.945,VALID,0,VALID,72.1051,VALID,343.896,VALID,22.821,VALID,14,VALID,1.42208,
2002-08-02, 08:51:00,VALID,917.932,VALID,0,VALID,74.2197,VALID,308.949,VALID,22.8406,VALID,355,VALID,0.907484,
2002-08-02, 08:52:00,VALID,917.909,VALID,0,VALID,73.5267,VALID,231.109,VALID,22.8988,VALID,12,VALID,0.943668,
2002-08-02, 08:53:00,VALID,917.879,VALID,0,VALID,72.4891,VALID,204.925,VALID,22.9021,VALID,351,VALID,0.899127,
2002-08-02, 08:54:00,VALID,917.841,VALID,0,VALID,72.6735,VALID,217.168,VALID,22.8183,VALID,16,VALID,1.28927,
2002-08-02, 08:55:00,VALID,917.817,VALID,0,VALID,73.9298,VALID,246.443,VALID,22.7537,VALID,20,VALID,0.932675,
2002-08-02, 08:56:00,VALID,917.808,VALID,0,VALID,73.5356,VALID,267.074,VALID,22.7563,VALID,15,VALID,1.37153,
2002-08-02, 08:57:00,VALID,917.789,VALID,0,VALID,73.1071,VALID,298.88,VALID,22.6293,VALID,12,VALID,1.3764,
2002-08-02, 08:58:00,VALID,917.786,VALID,0,VALID,74.1752,VALID,346.29,VALID,22.5935,VALID,7,VALID,1.04129,
2002-08-02, 08:59:00,VALID,917.774,VALID,0,VALID,73.1109,VALID,324.096,VALID,22.6358,VALID,30,VALID,1.36616,
2002-08-02, 09:00:00,VALID,917.756,VALID,0,VALID,73.2724,VALID,366.378,VALID,22.7133,VALID,359,VALID,0.99308,
2002-08-02, 09:01:00,VALID,917.767,VALID,0,VALID,73.7709,VALID,362.439,VALID,22.7319,VALID,18,VALID,1.01563,
2002-08-02, 09:02:00,VALID,917.745,VALID,0,VALID,72.1508,VALID,395.942,VALID,22.8136,VALID,17,VALID,1.24383,
2002-08-02, 09:03:00,VALID,917.754,VALID,0,VALID,73.6755,VALID,416.387,VALID,22.8162,VALID,16,VALID,1.29087,
2002-08-02, 09:04:00,VALID,917.772,VALID,0,VALID,73.5661,VALID,365.614,VALID,22.8909,VALID,20,VALID,0.880409,
2002-08-02, 09:05:00,VALID,917.777,VALID,0,VALID,74.0328,VALID,331.347,VALID,22.9073,VALID,19,VALID,0.956715,
2002-08-02, 09:06:00,VALID,917.805,VALID,0,VALID,72.0122,VALID,388.046,VALID,22.9132,VALID,357,VALID,0.916807,
2002-08-02, 09:07:00,VALID,917.831,VALID,0,VALID,71.0445,VALID,550.298,VALID,22.8715,VALID,332,VALID,0.967773,
2002-08-02, 09:08:00,VALID,917.854,VALID,0,VALID,70.4138,VALID,631.347,VALID,22.8679,VALID,302,VALID,0.392149,
2002-08-02, 09:09:00,VALID,917.882,VALID,0,VALID,71.1386,VALID,552.505,VALID,23.091,VALID,339,VALID,0.467905,
2002-08-02, 09:10:00,VALID,917.909,VALID,0,VALID,70.4939,VALID,644.66,VALID,23.4302,VALID,21,VALID,1.30321,
2002-08-02, 09:11:00,VALID,917.933,VALID,0,VALID,66.9843,VALID,617.865,VALID,23.7541,VALID,28,VALID,0.779642,
2002-08-02, 09:12:00,VALID,917.953,VALID,0,VALID,67.0059,VALID,602.463,VALID,23.9769,VALID,59,VALID,1.49079,
2002-08-02, 09:13:00,VALID,917.961,VALID,0,VALID,66.3447,VALID,589.914,VALID,24.0066,VALID,46,VALID,1.26471,
2002-08-02, 09:14:00,VALID,917.982,VALID,0,VALID,65.7038,VALID,567.313,VALID,24.0163,VALID,8,VALID,1.8353,
2002-08-02, 09:15:00,VALID,917.973,VALID,0,VALID,65.8729,VALID,555.171,VALID,24.0116,VALID,7,VALID,1.44892,
2002-08-02, 09:16:00,VALID,917.979,VALID,0,VALID,65.7712,VALID,524.928,VALID,24.2108,VALID,14,VALID,0.863281,
2002-08-02, 09:17:00,VALID,917.976,VALID,0,VALID,63.7252,VALID,490.729,VALID,24.3625,VALID,62,VALID,1.31953,
2002-08-02, 09:18:00,VALID,917.963,VALID,0,VALID,64.9243,VALID,479.114,VALID,24.2458,VALID,43,VALID,1.04256,
2002-08-02, 09:19:00,VALID,917.974,VALID,0,VALID,65.1761,VALID,482.884,VALID,24.2264,VALID,4,VALID,1.0259,
2002-08-02, 09:20:00,VALID,917.966,VALID,0,VALID,64.1347,VALID,486.908,VALID,24.1973,VALID,359,VALID,1.34851,
2002-08-02, 09:21:00,VALID,917.955,VALID,0,VALID,62.7804,VALID,489.269,VALID,24.0447,VALID,317,VALID,1.04808,
2002-08-02, 09:22:00,VALID,917.95,VALID,0,VALID,63.6311,VALID,492.546,VALID,23.9122,VALID,331,VALID,1.06991,
2002-08-02, 09:23:00,VALID,917.954,VALID,0,VALID,61.9589,VALID,509.815,VALID,23.8543,VALID,347,VALID,0.938322,
2002-08-02, 09:24:00,VALID,917.969,VALID,0,VALID,62.5515,VALID,521.294,VALID,23.9607,VALID,356,VALID,0.646115,
2002-08-02, 09:25:00,VALID,917.946,VALID,0,VALID,63.0156,VALID,546.409,VALID,24.1614,VALID,350,VALID,1.09704,
2002-08-02, 09:26:00,VALID,917.957,VALID,0,VALID,62.6342,VALID,541.536,VALID,24.2229,VALID,358,VALID,0.663662,
2002-08-02, 09:27:00,VALID,917.957,VALID,0,VALID,63.9299,VALID,544.694,VALID,24.3929,VALID,359,VALID,0.599095,
2002-08-02, 09:28:00,VALID,917.959,VALID,0,VALID,62.9686,VALID,563.882,VALID,24.5954,VALID,342,VALID,0.631373,
2002-08-02, 09:29:00,VALID,917.938,VALID,0,VALID,62.2311,VALID,571.49,VALID,24.7344,VALID,24,VALID,1.40556,
2002-08-02, 09:30:00,VALID,917.919,VALID,0,VALID,62.0556,VALID,583.156,VALID,24.8964,VALID,21,VALID,1.20545,
2002-08-02, 09:31:00,VALID,917.884,VALID,0,VALID,59.6662,VALID,583.818,VALID,25.0517,VALID,18,VALID,1.12316,
2002-08-02, 09:32:00,VALID,917.863,VALID,0,VALID,62.1649,VALID,588.301,VALID,25.0339,VALID,321,VALID,0.900608,
2002-08-02, 09:33:00,VALID,917.846,VALID,0,VALID,62.9724,VALID,590.423,VALID,24.901,VALID,307,VALID,0.789663,
2002-08-02, 09:34:00,VALID,917.838,VALID,0,VALID,60.9963,VALID,580.456,VALID,24.7497,VALID,279,VALID,0.859821,
2002-08-02, 09:35:00,VALID,917.843,VALID,0,VALID,63.1428,VALID,576.075,VALID,24.664,VALID,294,VALID,0.546464,
2002-08-02, 09:36:00,VALID,917.853,VALID,0,VALID,63.7417,VALID,588.878,VALID,24.697,VALID,8,VALID,0.294866,
2002-08-02, 09:37:00,VALID,917.836,VALID,0,VALID,64.1054,VALID,586.008,VALID,24.8548,VALID,307,VALID,0.233594,
2002-08-02, 09:38:00,VALID,917.809,VALID,0,VALID,63.5688,VALID,589.557,VALID,24.8684,VALID,320,VALID,0.681127,
2002-08-02, 09:39:00,VALID,917.806,VALID,0,VALID,64.2745,VALID,631.5,VALID,24.881,VALID,11,VALID,0.625,
2002-08-02, 09:40:00,VALID,917.77,VALID,0,VALID,63.8434,VALID,655.986,VALID,24.9932,VALID,337,VALID,0.606971,
2002-08-02, 09:41:00,VALID,917.756,VALID,0,VALID,63.2,VALID,656.53,VALID,25.0744,VALID,318,VALID,0.600507,
2002-08-02, 09:42:00,VALID,917.76,VALID,0,VALID,63.1453,VALID,655.375,VALID,24.9301,VALID,291,VALID,0.51098,
2002-08-02, 09:43:00,VALID,917.756,VALID,0,VALID,61.9132,VALID,656.581,VALID,24.8076,VALID,321,VALID,0.576953,
2002-08-02, 09:44:00,VALID,917.771,VALID,0,VALID,61.0268,VALID,658.092,VALID,24.6976,VALID,306,VALID,0.842797,
2002-08-02, 09:45:00,VALID,917.796,VALID,0,VALID,61.5139,VALID,657.702,VALID,24.6485,VALID,318,VALID,0.752534,
2002-08-02, 09:46:00,VALID,917.807,VALID,0,VALID,61.0625,VALID,658.16,VALID,24.6365,VALID,309,VALID,0.484375,
2002-08-02, 09:47:00,VALID,917.83,VALID,0,VALID,61.7517,VALID,657.685,VALID,24.7199,VALID,311,VALID,0.354779,
2002-08-02, 09:48:00,VALID,917.846,VALID,0,VALID,61.2405,VALID,658.635,VALID,24.7649,VALID,307,VALID,0.606771,
2002-08-02, 09:49:00,VALID,917.859,VALID,0,VALID,61.7924,VALID,659.926,VALID,24.9163,VALID,19,VALID,0.955423,
2002-08-02, 09:50:00,VALID,917.864,VALID,0,VALID,60.7344,VALID,660.418,VALID,25.1355,VALID,1,VALID,0.677998,
2002-08-02, 09:51:00,VALID,917.885,VALID,0,VALID,59.9612,VALID,661.268,VALID,25.4011,VALID,354,VALID,0.515625,
2002-08-02, 09:52:00,VALID,917.91,VALID,0,VALID,57.9877,VALID,663.526,VALID,25.3694,VALID,307,VALID,0.91059,
2002-08-02, 09:53:00,VALID,917.94,VALID,0,VALID,58.8931,VALID,665.496,VALID,25.2458,VALID,315,VALID,0.696094,
2002-08-02, 09:54:00,VALID,917.96,VALID,0,VALID,59.8036,VALID,667.075,VALID,25.2594,VALID,251,VALID,0.522821,
2002-08-02, 09:55:00,VALID,917.977,VALID,0,VALID,60.5703,VALID,668.892,VALID,25.3749,VALID,244,VALID,0.384457,
2002-08-02, 09:56:00,VALID,918.004,VALID,0,VALID,61.0205,VALID,670.777,VALID,25.5473,VALID,305,VALID,0.453506,
2002-08-02, 09:57:00,VALID,918.034,VALID,0,VALID,60.9391,VALID,671.66,VALID,25.6692,VALID,234,VALID,0.377804,
2002-08-02, 09:58:00,VALID,918.057,VALID,0,VALID,59.3471,VALID,674.156,VALID,25.9057,VALID,214,VALID,0.147436,
2002-08-02, 09:59:00,VALID,918.079,VALID,0,VALID,58.6388,VALID,675.379,VALID,26.134,VALID,323,VALID,0.310444,
2002-08-02, 10:00:00,VALID,918.088,VALID,0,VALID,57.6113,VALID,677.654,VALID,26.3317,VALID,346,VALID,0.779772,
2002-08-02, 10:01:00,VALID,918.098,VALID,0,VALID,57.4689,VALID,679.878,VALID,26.2113,VALID,213,VALID,0.727385,
2002-08-02, 10:02:00,VALID,918.075,VALID,0,VALID,58.9109,VALID,682.188,VALID,26.257,VALID,110,VALID,0.35597,
2002-08-02, 10:03:00,VALID,918.058,VALID,0,VALID,58.7647,VALID,686.161,VALID,26.3967,VALID,250,VALID,0.363898,
2002-08-02, 10:04:00,VALID,918.035,VALID,0,VALID,58.3005,VALID,686.637,VALID,26.3414,VALID,233,VALID,0.323602,
2002-08-02, 10:05:00,VALID,918.014,VALID,0,VALID,58.5345,VALID,686.705,VALID,26.4414,VALID,335,VALID,0.263557,
2002-08-02, 10:06:00,VALID,918.003,VALID,0,VALID,57.6177,VALID,686.943,VALID,26.4996,VALID,352,VALID,0.4375,
2002-08-02, 10:07:00,VALID,917.987,VALID,0,VALID,57.9597,VALID,691.018,VALID,26.5967,VALID,328,VALID,0.329274,
2002-08-02, 10:08:00,VALID,917.991,VALID,0,VALID,58.2255,VALID,693.531,VALID,26.7477,VALID,358,VALID,0.540148,
2002-08-02, 10:09:00,VALID,918.002,VALID,0,VALID,54.6854,VALID,697.046,VALID,26.6791,VALID,8,VALID,1.52724,
2002-08-02, 10:10:00,VALID,918.022,VALID,0,VALID,54.9855,VALID,697.42,VALID,26.4142,VALID,341,VALID,1.22277,
2002-08-02, 10:11:00,VALID,918.042,VALID,0,VALID,56.65,VALID,700.374,VALID,26.0722,VALID,342,VALID,0.615954,
2002-08-02, 10:12:00,VALID,918.053,VALID,0,VALID,57.9686,VALID,700.306,VALID,26.147,VALID,24,VALID,1.38772,
2002-08-02, 10:13:00,VALID,918.051,VALID,0,VALID,58.1543,VALID,703.703,VALID,26.2706,VALID,350,VALID,1.09668,
2002-08-02, 10:14:00,VALID,918.036,VALID,0,VALID,58.2395,VALID,709.323,VALID,26.2382,VALID,350,VALID,1.59827,
2002-08-02, 10:15:00,VALID,918.029,VALID,0,VALID,57.4498,VALID,710.478,VALID,26.1279,VALID,17,VALID,0.856771,
2002-08-02, 10:16:00,VALID,918.022,VALID,0,VALID,59.169,VALID,703.601,VALID,26.2867,VALID,9,VALID,1.05409,
2002-08-02, 10:17:00,VALID,918.019,VALID,0,VALID,57.4562,VALID,704.891,VALID,26.2324,VALID,299,VALID,0.737331,
2002-08-02, 10:18:00,VALID,917.995,VALID,0,VALID,58.4442,VALID,708.253,VALID,26.1192,VALID,328,VALID,0.59924,
2002-08-02, 10:19:00,VALID,917.982,VALID,0,VALID,58.153,VALID,710.885,VALID,26.0577,VALID,323,VALID,0.641602,
2002-08-02, 10:20:00,VALID,917.965,VALID,0,VALID,58.5116,VALID,715.997,VALID,26.1347,VALID,2,VALID,0.695694,
2002-08-02, 10:21:00,VALID,917.961,VALID,0,VALID,58.8778,VALID,720.972,VALID,26.3647,VALID,360,VALID,1.0397,
2002-08-02, 10:22:00,VALID,917.978,VALID,0,VALID,57.0772,VALID,723.757,VALID,26.4776,VALID,2,VALID,1.25802,
2002-08-02, 10:23:00,VALID,917.989,VALID,0,VALID,58.2293,VALID,725.727,VALID,26.3806,VALID,348,VALID,0.89591,
2002-08-02, 10:24:00,VALID,917.993,VALID,0,VALID,58.593,VALID,726.627,VALID,26.3838,VALID,9,VALID,1.30429,
2002-08-02, 10:25:00,VALID,917.979,VALID,0,VALID,58.1161,VALID,729.989,VALID,26.3188,VALID,334,VALID,0.699678,
2002-08-02, 10:26:00,VALID,917.976,VALID,0,VALID,58.8562,VALID,730.227,VALID,26.3188,VALID,348,VALID,1.60916,
2002-08-02, 10:27:00,VALID,917.987,VALID,0,VALID,57.8974,VALID,734.166,VALID,26.0564,VALID,297,VALID,0.803686,
2002-08-02, 10:28:00,VALID,917.978,VALID,0,VALID,58.167,VALID,733.742,VALID,26.112,VALID,307,VALID,0.288845,
2002-08-02, 10:29:00,VALID,917.934,VALID,0,VALID,58.9846,VALID,736.136,VALID,26.2214,VALID,266,VALID,0.789844,
2002-08-02, 10:30:00,VALID,917.929,VALID,0,VALID,59.5658,VALID,738.14,VALID,26.3453,VALID,248,VALID,0.379729,
2002-08-02, 10:31:00,VALID,917.911,VALID,0,VALID,58.8677,VALID,742.657,VALID,26.454,VALID,218,VALID,0.386513,
2002-08-02, 10:32:00,VALID,917.917,VALID,0,VALID,57.7817,VALID,746.477,VALID,26.6312,VALID,252,VALID,0.442264,
2002-08-02, 10:33:00,VALID,917.891,VALID,0,VALID,58.7418,VALID,748.77,VALID,26.6973,VALID,352,VALID,0.454327,
2002-08-02, 10:34:00,VALID,917.884,VALID,0,VALID,58.3171,VALID,747.7,VALID,26.7193,VALID,244,VALID,0.576923,
2002-08-02, 10:35:00,VALID,917.886,VALID,0,VALID,58.7036,VALID,750.23,VALID,26.6704,VALID,270,VALID,0.751028,
2002-08-02, 10:36:00,VALID,917.859,VALID,0,VALID,57.5223,VALID,751.232,VALID,26.6736,VALID,261,VALID,0.47234,
2002-08-02, 10:37:00,VALID,917.878,VALID,0,VALID,57.9521,VALID,752.387,VALID,26.7338,VALID,233,VALID,0.284539,
2002-08-02, 10:38:00,VALID,917.882,VALID,0,VALID,58.2191,VALID,752.607,VALID,26.98,VALID,136,VALID,0.35637,
2002-08-02, 10:39:00,VALID,917.873,VALID,0,VALID,58.1657,VALID,753.677,VALID,27.2285,VALID,95,VALID,0.353618,
2002-08-02, 10:40:00,VALID,917.898,VALID,0,VALID,57.1853,VALID,749.84,VALID,27.5064,VALID,35,VALID,0.422286,
2002-08-02, 10:41:00,VALID,917.885,VALID,0,VALID,56.4122,VALID,752.556,VALID,27.7876,VALID,20,VALID,0.622472,
2002-08-02, 10:42:00,VALID,917.909,VALID,0,VALID,55.5335,VALID,753.983,VALID,27.7113,VALID,16,VALID,0.729096,
2002-08-02, 10:43:00,VALID,917.918,VALID,0,VALID,56.2494,VALID,755.172,VALID,27.7933,VALID,350,VALID,0.823759,
2002-08-02, 10:44:00,VALID,917.926,VALID,0,VALID,56.2189,VALID,756.988,VALID,27.844,VALID,16,VALID,1.41862,
2002-08-02, 10:45:00,VALID,917.926,VALID,0,VALID,55.7649,VALID,755.851,VALID,27.8411,VALID,9,VALID,0.496795,
2002-08-02, 10:46:00,VALID,917.923,VALID,0,VALID,53.593,VALID,763.73,VALID,27.6987,VALID,279,VALID,0.967634,